Location: Newark
(13.6797°N, 8.5297°E)
Time: 11:01:48
(UTC+00:00)

SR - Pass Details

Date: 31 January 2020
Orbit: 575 x 880 km, 66.7° (Epoch: 25 February)

Event Time Altitude Azimuth Distance (km) Brightness Sun altitude
Rises 18:54:03 0° 200° (SSW) 3,254 ? -21.6°
Reaches altitude 10° 18:56:23 10° 200° (SSW) 2,368 ? -22.1°
Maximum altitude 19:01:54 90° 285° (WNW) 844 ? -23.4°
Enters shadow 19:04:14 38° 20° (NNE) 1,273 ? -24.0°
Drops below altitude 10° 19:07:46 10° 21° (NNE) 2,510 - -24.8°
Sets 19:10:17 0° 21° (NNE) 3,462 - -25.4°
